Regional Weather Roundup
Issued by NWS

Home | Current Version | Previous Version | Graphics & Text | Print | Product List | Glossary On
Versions: 1 2 3 4 5 6 7 8 9 10 11 12 13 14 15 16 17 18 19 20 21 22 23 24 25 26 27 28 29 30 31 32 33 34 35 36 37 38 39 40 41 42 43 44 45 46 47 48 49 50
000
ASUS45 KBOU 310607
RWRCO

WEATHER ROUNDUP FOR COLORADO
NATIONAL WEATHER SERVICE DENVER/BOULDER CO
1200 AM MDT THU JUL 31 2014

NOTE: "FAIR" INDICATES FEW OR NO CLOUDS BELOW 12000 FEET WITH NO
SIGNIFICANT WEATHER AND/OR OBSTRUCTIONS TO VISIBILITY.

COZ001>005-013-030-031-310700-
...NORTHWEST COLORADO...

CITY           SKY/WX    TMP DP  RH WIND       PRES   REMARKS
CRAIG          PTCLDY    55  55 100 VRB3      30.31S
HAYDEN         CLOUDY    59  50  72 E9        30.33S
MEEKER         PTCLDY    60  54  80 CALM      30.32R
MOUNT WERNER   NOT AVBL
STEAMBOAT SPGS MOCLDY    56  53  89 CALM      30.35F
WALDEN         CLOUDY    50  45  81 CALM      30.44S
$$

COZ006>008-011-310700-
...WEST CENTRAL VALLEYS...

CITY           SKY/WX    TMP DP  RH WIND       PRES   REMARKS
GRAND JUNCTION MOCLDY    66  60  81 NW6       30.19S
MONTROSE       MOCLDY    68  54  60 SE7       30.27R
EAGLE          CLOUDY    57  57 100 CALM      30.37S
RIFLE          PTCLDY    65  56  72 CALM      30.25S
DELTA          MOCLDY    72  55  55 E7        30.21R
NUCLA          NOT AVBL
$$

COZ017>023-064>068-310700-
...SOUTHWEST COLORADO...

CITY           SKY/WX    TMP DP  RH WIND       PRES   REMARKS
DURANGO        CLEAR     67  49  52 VRB3      30.26R
CORTEZ         CLEAR     63  52  67 NE6       30.23R
PAGOSA SPRINGS CLEAR     58  48  69 CALM      30.35R
TELLURIDE      PTCLDY    55  50  82 E5        30.47R
WOLF CREEK PAS NOT AVBL
$$

COZ009-010-012-014-032>034-037-058>063-310700-
...CENTRAL COLORADO...

CITY           SKY/WX    TMP DP  RH WIND       PRES   REMARKS
ASPEN          CLOUDY    56  54  93 CALM      30.40R
BUENA VISTA    CLOUDY    54  50  88 CALM      30.47S
COPPER MTN     RAIN      45  41  87 W14       30.67S VSB<1/4
BERTHOUD PASS  CLOUDY    36  34  93 CALM      30.71S
COTTONWOOD PAS CLOUDY    52  48  87 CALM      30.57S
GUNNISON       PTCLDY    59  46  63 CALM      30.40R
KREMMLING      CLOUDY    55  52  88 CALM      30.42S
LEADVILLE      CLOUDY    47  47 100 S3        30.54R
MONARCH PASS   FOG       43  41  93 NE17      30.76S VSB<1/4
SALIDA         CLOUDY    56  53  90 SE10      30.52R
SUNLIGHT       PTCLDY    50  48  93 CALM      30.60S
WILKERSON PASS CLOUDY    41  41 100 CALM      30.67R
$$

COZ069>075-310700-
...SAN LUIS VALLEY/SANGRE DE CRISTO MOUNTAINS...

CITY           SKY/WX    TMP DP  RH WIND       PRES   REMARKS
ALAMOSA        MOCLDY    56  52  86 SE8       30.39R
LA VETA PASS   SNOW      46  45  93 NE8       30.57R VSB 1/4
SAGUACHE       PTCLDY    57  54  88 CALM      30.41S
$$

COZ035-036-038>040-310700-
...NORTHERN COLORADO FRONT RANGE...

CITY           SKY/WX    TMP DP  RH WIND       PRES   REMARKS
DENVER INTL AP CLOUDY    59  56  89 W6        30.34S
DMNS CITY PARK   N/A     58  56  96 S2        30.33F
AURORA         MOCLDY    57  57 100 S2        30.36F
FRONT RANGE AP CLOUDY    59  57  94 W3        30.35F
ERIE MUNI ARPT CLOUDY    59  57  94 SW3       30.32F
BOULDER MUN AP CLOUDY    59  55  88 S5        30.32F
CENTENNIAL     CLOUDY    57  54  89 CALM      30.36F
BROOMFIELD     CLOUDY    59  55  88 CALM      30.35F
FORT COLLINS   CLOUDY    59  55  88 S7        30.33F
LONGMONT       CLOUDY    61  58  91 E3        30.34S
$$

COZ041-046-047-076>085-087-088-310700-
...PIKES PEAK/PALMER DIVIDE AND SOUTHERN FOOTHILLS...

CITY           SKY/WX    TMP DP  RH WIND       PRES   REMARKS
COLO. SPRINGS  LGT RAIN  56  54  93 W5        30.40S
A. F. ACADEMY  LGT RAIN  54  54  99 CALM      30.41S
ELLICOTT       LGT RAIN  57  55  93 W3        30.38F
FALCON         CLOUDY    53  52  96 W5        30.43S
FORT CARSON    CLOUDY    57  55  94 W2        30.37F
LIMON          CLOUDY    57  55  93 CALM      30.35S
MONUMENT HILL  CLOUDY    52  50  93 SW5       30.41F
TRINIDAD       CLOUDY    59  56  89 E3        30.37R
$$

COZ042>045-048>051-090-091-310700-
...NORTHEAST COLORADO...

CITY           SKY/WX    TMP DP  RH WIND       PRES   REMARKS
GREELEY ARPT   NOT AVBL
AKRON          MOCLDY    58  55  90 W9        30.30S
BURLINGTON     MOCLDY    59  56  89 NW6       30.29S
WRAY           NOT AVBL
STERLING       MOCLDY    63  61  94 W5        30.26S
HOLYOKE        PTCLDY    61  59  94 SW6       30.25S
FORT MORGAN    NOT AVBL
$$

COZ086-089-092>099-310700-
...SOUTHEAST COLORADO...

CITY           SKY/WX    TMP DP  RH WIND       PRES   REMARKS
PUEBLO         CLOUDY    62  60  93 CALM      30.33R
LA JUNTA       PTCLDY    63  58  83 S3        30.30R
LAMAR          PTCLDY    60  57  89 CALM      30.26S
SPRINGFIELD      N/A     56  55  97 CALM      30.31R
$$



USA.gov is the U.S. government's official web portal to all federal, state and local government web resources and services.